Air Resources Laboratory banner image
Air Resources Laboratory web site National Oceanic and Atmospheric Administration (NOAA)

mt roundup


Office: TFX

ASUS45 KTFX 191310
RWRMT
MONTANA REGIONAL WEATHER ROUNDUP
NATIONAL WEATHER SERVICE GREAT FALLS MT
700 AM MDT SUN AUG 19 2018

NOTE: "FAIR" INDICATES FEW OR NO CLOUDS BELOW 12000 FEET WITH NO
SIGNIFICANT WEATHER AND/OR OBSTRUCTIONS TO VISIBILITY.

MTZ001>007-043-191400-
WEST OF THE DIVIDE

CITY           SKY/WX    TMP DP  RH WIND       PRES   REMARKS
KALISPELL      CLOUDY    61  40  45 NE10      30.15R HAZE
MISSOULA       FAIR      59  46  62 SE7       30.18R HAZE
BUTTE          FAIR      45  41  86 CALM      30.33R FOG
MULLAN PASS    FAIR      57  40  52 SE6       30.27R
ANACONDA         N/A     46  43  87 S6        30.29S
DEER LODGE       N/A     43  43 100 CALM      30.30S
LIBBY            N/A     48  43  81 CALM      30.14R
PLAINS           N/A     50  42  73 CALM      30.13R
$$

MTZ008-052>055-191400-
SOUTHWEST MONTANA

CITY           SKY/WX    TMP DP  RH WIND       PRES   REMARKS
BOZEMAN        FAIR      48  44  86 CALM      30.30S FOG
DILLON         FAIR      48  43  82 S10       30.31R HAZE
ENNIS          CLEAR     45  43  93 CALM      30.36S FOG
W YELLOWSTONE  FAIR      34  32  93 CALM      30.38R
THREE FORKS      N/A     44  42  93 CALM      30.25S VSB 0
TWIN BRIDGES     N/A     47  41  80 CALM      30.26R
$$

MTZ009-010-012-014-046-048-049-054-191400-
EAST SLOPES AND CENTRAL MONTANA

CITY           SKY/WX    TMP DP  RH WIND       PRES   REMARKS
CUT BANK       CLOUDY    42  34  73 NE6       30.27S HAZE
GREAT FALLS    CLOUDY    44  36  73 SW5       30.27S SMOKE
MALMSTROM AFB  FAIR      46  36  68 CALM      30.27S FOG
HELENA         CLOUDY    52  38  58 E3        30.28R HAZE
BOWMANS CRNR   FAIR      47  35  63 W3        30.26S FOG
CHOTEAU          N/A     46  36  66 CALM      30.28F HAZE
RAYNESFORD     MOCLDY    48  38  70 E6        30.29R FOG
ULM            FAIR      45  36  70 SE3       30.27S FOG
$$

MTZ011-013-016-021-045-047-050-051-191400-
NORTH CENTRAL MONTANA

CITY           SKY/WX    TMP DP  RH WIND       PRES   REMARKS
HAVRE          FAIR      48  38  68 NE8       30.27S HAZE
LEWISTOWN      MOCLDY    48  41  76 SE9       30.30S HAZE
N BAR RANCH    FAIR      43  37  81 CALM      30.35S HAZE
CHINOOK          N/A     46  43  87 CALM      30.28R
DENTON         FAIR      44  37  76 SE6       30.26S FOG
GEYSER         FAIR      47  38  70 CALM      30.29S
GRASS RANGE    FAIR      47  39  75 W3        30.29R FOG
JUDITH GAP     FAIR      49  39  67 CALM      30.32R FOG
ROY            FAIR      53  41  65 SE5       30.29S FOG
STANFORD       FAIR      46  38  74 CALM      30.30S FOG
WINIFRED       MOCLDY    49  40  72 SE10      30.29S FOG
$$

MTZ017>020-022>027-061-062-191400-
NORTHEAST MONTANA

CITY           SKY/WX    TMP DP  RH WIND       PRES   REMARKS
GLASGOW        FAIR      50  41  71 N8        30.25R HAZE
GLENDIVE       FAIR      57  44  62 N12       30.20R HAZE
JORDAN           N/A     50  45  83 N8        30.25S
MALTA          CLEAR     45  41  87 CALM      30.26R HAZE
SIDNEY         FAIR      57  45  64 N14       30.20R HAZE
WOLF POINT     FAIR      52  45  77 NW5       30.24R HAZE
POPLAR           N/A     52  43  71 NW5       30.24R
SCOBEY           N/A     42  36  79 CALM      30.21R
$$

MTZ028>42-056>058-191400-
SOUTHCENTRAL AND SOUTHEAST MONTANA

CITY           SKY/WX    TMP DP  RH WIND       PRES   REMARKS
BAKER          CLOUDY    56  52  86 NW10      30.17R FOG
BILLINGS       CLOUDY    55  47  74 NW7       30.29R HAZE
LIVINGSTON     CLOUDY    43  43 100 CALM      30.33R FOG
MILES CITY     CLOUDY    57  51  80 N12       30.20R HAZE
BIG TIMBER     CLEAR     50  46  87 CALM      30.34S FOG
EKALAKA          N/A     52  49  89 W6        30.15R
HARLOWTON      FAIR      47  42  82 NW8       30.32R FOG
$$

REGIONAL REPORTS...DAKOTAS

CITY           SKY/WX    TMP DP  RH WIND       PRES   REMARKS
WILLISTON      FAIR      54  44  69 N10       30.19R HAZE
MINOT          FAIR      58  44  60 N15G23    30.10R
DICKINSON      FAIR      58  49  72 N17G24    30.10R HAZE
BEACH          FAIR      55  48  76 MISG      30.20R HAZE
CROSBY         FAIR      48  45  87 NW9       30.20R FOG
TIOGA          FAIR      52  46  82 N12       30.18R HAZE
WATFORD CITY   FAIR      55  46  71 N12       30.16R HAZE
BISMARCK       FAIR      63  52  67 N17G24    30.01R HAZE
GRAND FORKS    LGT RAIN  63  60  90 N9        29.98R FOG
FARGO          LGT RAIN  66  65  96 N23G33    29.92S
BUFFALO SD       N/A     55  51  86 NW15      30.12R
RAPID CITY     LGT RAIN  60  58  92 N24       30.07R FOG
$$

REGIONAL REPORTS...WYOMING/IDAHO/WASHINGTON

CITY           SKY/WX    TMP DP  RH WIND       PRES   REMARKS
GILLETTE       LGT RAIN  56  54  93 NW18G26   30.23R FOG
SHERIDAN       CLOUDY    59  56  89 W6        30.26R
BUFFALO WY     CLOUDY    57  52  83 NW12      30.28R HAZE
CODY           FAIR      54  49  83 NE8       30.33R HAZE
YELLOWSTONE LA   N/A     34  33  96 CALM      30.46R
IDAHO FALLS    FAIR      48  43  82 N7        30.27S HAZE
SALMON         FAIR      48  44  86 CALM      30.24R
BOISE          FAIR      66  42  41 SE13      30.09R
SPOKANE        CLOUDY    59  48  67 N3        30.09S SMOKE
$$

REGIONAL REPORTS...ALBERTA

CITY           SKY/WX    TMP DP  RH WIND       PRES   REMARKS
CALGARY        MOCLDY    41  36  81 N2        30.28S SMOKE
CARDSTON         N/A     39  36  87 CALM        N/A
FORT MCMURRAY  CLOUDY    50  43  76 W5        30.13R
HIGH LEVEL     MOCLDY    46  43  87 S2        30.18R
LETHBRIDGE     CLEAR     39  34  81 CALM      30.25F SMOKE
LLOYDMINSTER   MOCLDY    46  43  87 W7        30.22R
MILK RIVER       N/A     39  34  81 N2          N/A
ONEFOUR          N/A     48  37  66 E6          N/A
PEACE RIVER    PTCLDY    45  36  70 CALM      30.23R
PINCHER CREEK  CLOUDY    37  36  93 W7        30.27R FOG
RAYMOND          N/A     41  39  93 CALM        N/A
$$

REGIONAL REPORTS...SASKATCHEWAN

CITY           SKY/WX    TMP DP  RH WIND       PRES   REMARKS
CORONACH         N/A     43  41  93 NW8         N/A
CYPRESS HILLS    N/A     46  34  61 SE3         N/A
ESTEVAN        CLOUDY    46  43  87 NW6       30.18R SMOKE
MOOSE JAW        N/A     46  41  81 W6          N/A
PRINCE ALBERT  MOCLDY    45  45 100 W5        30.20S
REGINA         CLEAR     43  39  87 NW8       30.21S
ROCKGLEN         N/A     46  41  81 NW6         N/A
SASKATOON      PTCLDY    39  37  93 SW5       30.23R
SWIFT CURRENT  CLEAR     43  39  87 SW9       30.27R FOG
VAL MARIE        N/A     39  32  75 CALM        N/A
$$